Tracking 28790 objects as of 18-Apr-2024
HD Live streaming from Space Station
objects crossing your sky now

STARLINK-2274

Track STARLINK-2274 now!
10-day predictions
STARLINK-2274 is classified as:


NORAD ID: 48599
Int'l Code: 2021-041AY
Perigee: 365.6 km
Apogee: 368.2 km
Inclination: 53.1 °
Period: 91.7 minutes
Semi major axis: 6737 km
RCS: Unknown
Launch date: May 15, 2021
Source: United States (US)
Launch site: AIR FORCE EASTERN TEST RANGE (AFETR)
Your satellite tracking list
Your tracking list is empty




NASA's NSSDC Master Catalog

Two Line Element Set (TLE):
1 48599U 21041AY  24108.87735374  .00007242  00000-0  64589-4 0  9993
2 48599  53.0532 324.8709 0001922 135.6586 224.4585 15.69707863162737
Source of the keplerian elements: AFSPC